Home   Weather   King's Lynn   Past weeks

Flag for United Kingdom Past Weather in King's Lynn, England, United Kingdom — Yesterday and Last 2 Weeks

Now
54 °F

Scattered clouds.


Feels Like: 50 °F
Forecast: 46 / 60 °F
Wind: 13 mph from Southeast

Location: Marham

Current Time: Apr 29, 2017 at 8:27:40 pm

Latest Report: Apr 29, 2017 at 7:50 pm


Visibility: N/A

Pressure: 29.89 "Hg

Humidity: 58%

Dew Point: 39 °F

Location of King's LynnLocation

Past Weather in King's Lynn — Graph

°F

King's Lynn Temperature Yesterday

Maximum temperature yesterday: 52 °F (at 12:50 pm)
Minimum temperature yesterday: 39 °F (at 3:50 am)
Average temperature yesterday: 47 °F

High & Low Weather Summary for the Past Weeks

 TemperatureHumidityPressure
High59 °F (Apr 23, 3:50 pm)100% (Apr 17, 1:50 am)30.66 "Hg (Apr 17, 1:50 am)
Low30 °F (Apr 19, 2:50 am)38% (Apr 15, 4:50 pm)29.83 "Hg (Apr 24, 6:50 pm)
Average46 °F75%30.19 "Hg
* Reported Apr 14 6:50 pm — Apr 29 6:50 pm, King's Lynn, Weather by CustomWeather, © 2017

Note: Actual official high and low records may vary slightly from our data, if they occured in-between our weather recording intervals... More about our weather records

Advertising

King's Lynn Weather History for the Previous 24 Hours

Scroll right to see more
 ConditionsComfort  
Time TempWeatherWind HumidityBarometerVisibility
6:50 pm
Sat, Apr 29
55 °FScattered clouds.14 mph63%29.89 "HgN/A
5:50 pm57 °FOvercast.12 mph55%29.92 "HgN/A
4:50 pm57 °FOvercast.10 mph55%29.92 "HgN/A
3:50 pm57 °FOvercast.8 mph55%29.95 "HgN/A
2:50 pm57 °FOvercast.6 mph55%29.95 "HgN/A
1:50 pm55 °FOvercast.3 mph59%29.98 "HgN/A
12:50 pm55 °FOvercast.8 mph55%29.98 "HgN/A
11:50 am54 °FPartly sunny.9 mph58%29.98 "HgN/A
10:50 am54 °FPartly sunny.7 mph63%30.01 "HgN/A
9:50 am54 °FPassing clouds.8 mph58%30.01 "HgN/A
8:50 am50 °FPartly sunny.7 mph67%30.01 "HgN/A
7:50 am48 °FOvercast.6 mph82%30.01 "HgN/A
6:50 am46 °FOvercast.6 mph87%29.98 "HgN/A
5:50 am46 °FOvercast.7 mph82%29.98 "HgN/A
4:50 am46 °FOvercast.7 mph82%29.98 "HgN/A
3:50 am46 °FOvercast.6 mph82%29.98 "HgN/A
2:50 am45 °FOvercast.6 mph87%29.98 "HgN/A
1:50 am45 °FOvercast.7 mph87%30.01 "HgN/A
12:50 am46 °FOvercast.7 mph82%30.01 "HgN/A
11:50 pm
Fri, Apr 28
46 °FOvercast.8 mph82%30.01 "HgN/A
10:50 pm46 °FOvercast.7 mph76%30.01 "HgN/A
9:50 pm46 °FOvercast.7 mph76%30.01 "HgN/A
8:50 pm48 °FOvercast.6 mph71%30.01 "HgN/A
Weather by CustomWeather, © 2017

See weather overviewHow to use our weather pages